Home   Weather   Mechernich   Past weeks

Flag for Germany Past Weather in Mechernich, North Rhine-Westphalia, Germany — Yesterday and Last 2 Weeks

Now
52 °F

Passing clouds.


Feels Like: 48 °F
Forecast: 42 / 48 °F
Wind: 12 mph from Southwest

Location: Noervenich

Current Time: Jan 24, 2018 at 7:08:43 am

Latest Report: Jan 24, 2018 at 5:20 am


Visibility: N/A

Pressure: 30.09 "Hg

Humidity: 82%

Dew Point: 46 °F

Location of MechernichLocation

Past Weather in Mechernich — Graph

°F

Mechernich Temperature Yesterday

Maximum temperature yesterday: 50 °F (at 2:20 pm)
Minimum temperature yesterday: 41 °F (at 3:20 am)
Average temperature yesterday: 46 °F

High & Low Weather Summary for the Past Weeks

 TemperatureHumidityPressure
High52 °F (Jan 18, 10:24 am)100% (Jan 11, 2:20 am)30.33 "Hg (Jan 11, 2:20 am)
Low32 °F (Jan 17, 6:58 am)53% (Jan 18, 2:20 pm)29.24 "Hg (Jan 18, 9:20 am)
Average41 °F83%29.83 "Hg
* Reported Jan 9 5:20 am — Jan 24 5:20 am, Mechernich. Weather by CustomWeather, © 2018

Note: Actual official high and low records may vary slightly from our data, if they occured in-between our weather recording intervals... More about our weather records

Advertising

Mechernich Weather History for the Previous 24 Hours

Scroll right to see more
 ConditionsComfort  
Time TempWeatherWind HumidityBarometerVisibility
5:20 am
Wed, Jan 24
52 °FPassing clouds.12 mph82%30.09 "HgN/A
4:20 am52 °FPassing clouds.13 mph82%30.09 "HgN/A
3:20 am52 °FPassing clouds.13 mph82%30.09 "HgN/A
2:20 am52 °FPassing clouds.13 mph82%30.09 "HgN/A
1:20 am50 °FPassing clouds.10 mph82%30.12 "HgN/A
12:20 am50 °FPassing clouds.14 mph82%30.12 "HgN/A
11:20 pm
Tue, Jan 23
50 °FPartly cloudy.14 mph82%30.12 "HgN/A
10:20 pm50 °FPartly cloudy.16 mph76%30.09 "HgN/A
9:20 pm50 °FPartly cloudy.13 mph76%30.12 "HgN/A
8:20 pm48 °FPartly cloudy.9 mph76%30.09 "HgN/A
7:20 pm48 °FPartly cloudy.10 mph76%30.12 "HgN/A
6:20 pm48 °FPassing clouds.5 mph71%30.12 "HgN/A
5:20 pm48 °FPassing clouds.6 mph71%30.12 "HgN/A
4:20 pm48 °FPartly sunny.8 mph71%30.12 "HgN/A
3:20 pm50 °FBroken clouds.9 mph62%30.15 "HgN/A
2:20 pm50 °FScattered clouds.9 mph62%30.15 "HgN/A
1:20 pm48 °FBroken clouds.6 mph71%30.18 "HgN/A
12:20 pm46 °FBroken clouds.7 mph76%30.21 "HgN/A
11:36 am46 °FPartly sunny.8 mph71%30.21 "HgN/A
10:20 am43 °FPartly sunny.8 mph81%30.21 "HgN/A
9:20 am43 °FPartly sunny.7 mph81%30.21 "HgN/A
8:20 am43 °FPassing clouds.7 mph81%30.18 "HgN/A
7:20 am43 °FPassing clouds.3 mph87%30.18 "HgN/A
Weather by CustomWeather, © 2018

See weather overview